When you browse on this site, cookies collect data to enhance your experience and personalize the content and advertising you see.
Visit our Privacy Policy to learn more. By continuing to use the site, you agree to this use of cookies and data.
  • In Spain
  • List of Countries
  • For 7 days
  • Water Temperature
  • Weather Map
  • Weather Widgets
  • user-avatar
    Login

    Hourly Weather Namibe

    Today, 9 December, Monday

    Time Temperature Precipitation Wind Pressure Humidity
    00:00 +22°C° 0 mm 5 mps 757 mmHg 75%
    01:00 +22°C° 0 mm 4 mps 757 mmHg 71%
    02:00 +22°C° 0 mm 4 mps 757 mmHg 73%
    03:00 +21°C° 0 mm 5 mps 757 mmHg 74%
    04:00 +21°C° 0 mm 5 mps 757 mmHg 76%
    05:00 +21°C° 0 mm 5 mps 758 mmHg 76%
    06:00 +21°C° 0 mm 5 mps 758 mmHg 75%
    07:00 +21°C° 0 mm 4 mps 759 mmHg 75%
    08:00 +23°C° 0 mm 4 mps 759 mmHg 67%
    09:00 +25°C° 0 mm 4 mps 759 mmHg 60%
    10:00 +27°C° 0 mm 3 mps 759 mmHg 53%
    11:00 +28°C° 0 mm 4 mps 758 mmHg 51%
    12:00 +29°C° 0 mm 4 mps 757 mmHg 48%
    13:00 +30°C° 0 mm 5 mps 757 mmHg 46%
    14:00 +29°C° 0 mm 6 mps 756 mmHg 48%
    15:00 +29°C° 0 mm 6 mps 756 mmHg 51%
    16:00 +28°C° 0 mm 7 mps 755 mmHg 53%
    17:00 +27°C° 0 mm 7 mps 755 mmHg 58%
    18:00 +26°C° 0 mm 7 mps 756 mmHg 63%
    19:00 +24°C° 0 mm 6 mps 756 mmHg 68%
    20:00 +23°C° 0 mm 6 mps 757 mmHg 69%
    21:00 +23°C° 0 mm 5 mps 757 mmHg 69%
    22:00 +23°C° 0 mm 5 mps 758 mmHg 70%
    23:00 +22°C° 0 mm 4 mps 758 mmHg 71%

    Tomorrow, 10 December, Tuesday

    Time Temperature Precipitation Wind Pressure Humidity
    00:00 +22°C° 0 mm 3 mps 758 mmHg 72%
    01:00 +22°C° 0 mm 3 mps 758 mmHg 73%
    02:00 +21°C° 0 mm 2 mps 758 mmHg 74%
    03:00 +21°C° 0 mm 2 mps 758 mmHg 75%
    04:00 +21°C° 0 mm 2 mps 757 mmHg 77%
    05:00 +21°C° 0 mm 2 mps 758 mmHg 76%
    06:00 +21°C° 0 mm 2 mps 758 mmHg 75%
    07:00 +21°C° 0 mm 2 mps 758 mmHg 74%
    08:00 +24°C° 0 mm 2 mps 758 mmHg 69%
    09:00 +25°C° 0 mm 2 mps 758 mmHg 64%
    10:00 +26°C° 0 mm 2 mps 758 mmHg 59%
    11:00 +27°C° 0 mm 3 mps 758 mmHg 58%
    12:00 +27°C° 0 mm 4 mps 757 mmHg 57%
    13:00 +28°C° 0 mm 4 mps 757 mmHg 55%
    14:00 +27°C° 0 mm 5 mps 757 mmHg 57%
    15:00 +27°C° 0 mm 5 mps 756 mmHg 58%
    16:00 +27°C° 0 mm 5 mps 756 mmHg 59%
    17:00 +26°C° 0 mm 5 mps 756 mmHg 62%
    18:00 +25°C° 0 mm 4 mps 757 mmHg 65%
    19:00 +25°C° 0 mm 4 mps 757 mmHg 68%
    20:00 +25°C° 0 mm 3 mps 758 mmHg 68%
    21:00 +24°C° 0 mm 3 mps 758 mmHg 68%
    22:00 +24°C° 0 mm 2 mps 759 mmHg 68%
    23:00 +24°C° 0 mm 2 mps 759 mmHg 67%

    Day after tomorrow, 11 December, Wednesday

    Time Temperature Precipitation Wind Pressure Humidity
    00:00 +24°C° 0 mm 2 mps 758 mmHg 67%
    01:00 +24°C° 0 mm 1 mps 758 mmHg 67%
    02:00 +24°C° 0 mm 1 mps 758 mmHg 68%
    03:00 +24°C° 0 mm 1 mps 758 mmHg 68%
    04:00 +23°C° 0 mm 2 mps 757 mmHg 69%
    05:00 +23°C° 0 mm 2 mps 758 mmHg 69%
    06:00 +23°C° 0 mm 2 mps 758 mmHg 69%
    07:00 +22°C° 0 mm 3 mps 759 mmHg 69%
    08:00 +25°C° 0 mm 2 mps 759 mmHg 65%
    09:00 +26°C° 0 mm 2 mps 759 mmHg 60%
    10:00 +27°C° 0 mm 2 mps 759 mmHg 56%
    11:00 +27°C° 0 mm 3 mps 758 mmHg 55%
    12:00 +28°C° 0 mm 4 mps 758 mmHg 54%
    13:00 +29°C° 0 mm 5 mps 757 mmHg 53%
    14:00 +28°C° 0 mm 5 mps 757 mmHg 55%
    15:00 +28°C° 0 mm 5 mps 756 mmHg 56%
    16:00 +28°C° 0 mm 4 mps 756 mmHg 58%
    17:00 +27°C° 0 mm 4 mps 756 mmHg 60%
    18:00 +26°C° 0 mm 4 mps 757 mmHg 63%
    19:00 +26°C° 0 mm 3 mps 757 mmHg 65%
    20:00 +25°C° 0 mm 3 mps 758 mmHg 66%
    21:00 +25°C° 0 mm 4 mps 758 mmHg 68%
    22:00 +25°C° 0 mm 4 mps 759 mmHg 70%
    23:00 +23°C° 0 mm 4 mps 759 mmHg 71%

    12 December, Thursday

    Time Temperature Precipitation Wind Pressure Humidity
    00:00 +23°C° 0 mm 4 mps 758 mmHg 72%
    01:00 +22°C° 0 mm 4 mps 758 mmHg 73%
    02:00 +22°C° 0 mm 4 mps 758 mmHg 73%
    03:00 +22°C° 0 mm 3 mps 758 mmHg 74%
    04:00 +22°C° 0 mm 3 mps 758 mmHg 74%
    05:00 +22°C° 0 mm 3 mps 758 mmHg 73%
    06:00 +23°C° 0 mm 2 mps 758 mmHg 73%
    07:00 +23°C° 0 mm 2 mps 758 mmHg 72%
    08:00 +25°C° 0 mm 2 mps 758 mmHg 65%
    09:00 +27°C° 0 mm 2 mps 758 mmHg 58%
    10:00 +29°C° 0 mm 2 mps 758 mmHg 52%
    11:00 +29°C° 0 mm 3 mps 758 mmHg 52%
    12:00 +30°C° 0 mm 4 mps 757 mmHg 53%
    13:00 +30°C° 0 mm 6 mps 757 mmHg 53%
    14:00 +29°C° 0 mm 6 mps 756 mmHg 56%
    15:00 +29°C° 0 mm 6 mps 756 mmHg 58%
    16:00 +28°C° 0 mm 6 mps 756 mmHg 60%
    17:00 +27°C° 0 mm 6 mps 756 mmHg 65%
    18:00 +26°C° 0 mm 5 mps 757 mmHg 69%
    19:00 +25°C° 0 mm 4 mps 757 mmHg 73%
    20:00 +25°C° 0 mm 4 mps 758 mmHg 73%
    21:00 +25°C° 0 mm 4 mps 758 mmHg 73%
    22:00 +25°C° 0 mm 4 mps 759 mmHg 73%
    23:00 +25°C° 0 mm 3 mps 759 mmHg 74%

    13 December, Friday

    Time Temperature Precipitation Wind Pressure Humidity
    00:00 +24°C° 0 mm 3 mps 758 mmHg 74%
    01:00 +24°C° 0 mm 3 mps 758 mmHg 75%
    02:00 +24°C° 0 mm 3 mps 758 mmHg 76%
    03:00 +24°C° 0 mm 3 mps 758 mmHg 78%
    04:00 +22°C° 0 mm 4 mps 757 mmHg 80%
    05:00 +24°C° 0 mm 3 mps 757 mmHg 78%
    06:00 +24°C° 0 mm 3 mps 758 mmHg 76%
    07:00 +24°C° 0 mm 2 mps 758 mmHg 74%
    08:00 +26°C° 0 mm 3 mps 758 mmHg 65%
    09:00 +28°C° 0 mm 3 mps 758 mmHg 56%
    10:00 +30°C° 0 mm 3 mps 758 mmHg 47%
    11:00 +30°C° 0 mm 4 mps 757 mmHg 48%
    12:00 +30°C° 0 mm 5 mps 756 mmHg 49%
    13:00 +32°C° 0 mm 6 mps 756 mmHg 50%
    14:00 +30°C° 0 mm 6 mps 755 mmHg 52%
    15:00 +29°C° 0 mm 6 mps 755 mmHg 54%
    16:00 +29°C° 0 mm 6 mps 754 mmHg 56%
    17:00 +28°C° 0 mm 6 mps 755 mmHg 61%
    18:00 +27°C° 0 mm 6 mps 755 mmHg 66%
    19:00 +26°C° 0 mm 5 mps 756 mmHg 70%
    20:00 +26°C° 0 mm 5 mps 757 mmHg 70%
    21:00 +25°C° 0 mm 4 mps 757 mmHg 70%
    22:00 +25°C° 0 mm 4 mps 758 mmHg 69%
    23:00 +25°C° 0 mm 4 mps 758 mmHg 70%

    14 December, Saturday

    Time Temperature Precipitation Wind Pressure Humidity
    00:00 +23°C° 0 mm 4 mps 757 mmHg 71%
    01:00 +23°C° 0 mm 4 mps 757 mmHg 72%
    02:00 +24°C° 0 mm 3 mps 757 mmHg 73%
    03:00 +24°C° 0 mm 3 mps 757 mmHg 75%
    04:00 +22°C° 0 mm 3 mps 756 mmHg 76%
    05:00 +23°C° 0 mm 2 mps 757 mmHg 76%
    06:00 +24°C° 0 mm 2 mps 757 mmHg 75%
    07:00 +24°C° 0 mm 1 mps 757 mmHg 75%
    08:00 +25°C° 0 mm 2 mps 757 mmHg 68%
    09:00 +27°C° 0 mm 2 mps 757 mmHg 61%
    10:00 +28°C° 0 mm 3 mps 757 mmHg 55%
    11:00 +29°C° 0 mm 3 mps 757 mmHg 55%
    12:00 +29°C° 0 mm 4 mps 756 mmHg 55%
    13:00 +30°C° 0 mm 5 mps 756 mmHg 55%
    14:00 +29°C° 0 mm 5 mps 756 mmHg 56%
    15:00 +29°C° 0 mm 5 mps 755 mmHg 58%
    16:00 +28°C° 0 mm 6 mps 755 mmHg 59%
    17:00 +28°C° 0 mm 5 mps 755 mmHg 63%
    18:00 +27°C° 0 mm 3 mps 756 mmHg 66%
    19:00 +26°C° 0 mm 2 mps 756 mmHg 70%
    20:00 +26°C° 0 mm 2 mps 757 mmHg 70%
    21:00 +26°C° 0 mm 2 mps 757 mmHg 71%
    22:00 +26°C° 0 mm 1 mps 758 mmHg 71%
    23:00 +26°C° 0 mm 1 mps 757 mmHg 73%
    Show more